Location: Unspecified
(50.7693°N, 0.0000°E)
Time: 15:51:53
(UTC+00:00)

A-11 Canister half - Pass Details

Date: 20 June 2019
Orbit: 1526 x 1683 km, 47.3° (Epoch: 17 July)

Event Time Altitude Azimuth Distance (km) Brightness Sun altitude
Rises 09:40:16 0° 280° (W) 4,687 11.2 51.4°
Reaches altitude 10° 09:43:21 10° 277° (W) 3,698 10.8 51.8°
Maximum altitude 09:52:23 59° 201° (SSW) 1,730 10.3 53.0°
Drops below altitude 10° 10:01:30 10° 125° (SE) 3,727 11.8 54.2°
Sets 10:04:38 0° 122° (ESE) 4,725 12.1 54.5°
